Home > Weather > Accra > Past weeks

Flag for Ghana Weather for the Past 2 Weeks in Accra, Ghana

Now
82 °F

Fog.


Feels Like: 91 °F
Forecast: N/A
Wind: 9 mph from Southwest

Location: Accra Airport

Current Time: Feb 11, 2016 at 10:25:39 PM

Latest Report: Feb 11, 2016 at 9:00 PM


Visibility: 2 mi

Pressure: 29.86 "Hg

Humidity: 84%

Dew point: 77 °F

Location of AccraLocation

Historic Weather in Accra — Graph

°F

Accra Temperature Yesterday

Maximum temperature yesterday: 91 °F (at 3:00 PM)
Minimum temperature yesterday: 75 °F (at 2:00 PM)
Average temperature yesterday: 82 °F

High & Low Weather Summary for the Past Weeks

 TemperatureHumidityPressure
High93 °F (Jan 28, 3:00 PM)94% (Feb 8, 1:00 AM)30.09 "Hg (Feb 8, 1:00 AM)
Low75 °F (Feb 10, 2:00 PM)14% (Jan 28, 3:00 PM)29.77 "Hg (Feb 10, 3:00 PM)
Average83 °F70%29.90 "Hg
* Reported Jan 27 9:00 PM — Feb 11 9:00 PM, Accra, Weather by CustomWeather, © 2016

Note: Actual official high and low records may vary slightly from our data, if they occured in-between our weather recording intervals... More about our weather records

Advertising

Accra Weather History for the Previous 24 Hours

 ConditionsComfort  
Time TempWeatherWind HumidityBarometerVisibility
9:00 PM
Thu, Feb 11
82 °FFog.9 mph84%29.86 "Hg2 mi
8:00 PM82 °FFog.10 mph84%29.86 "Hg1 mi
6:00 PM82 °FHaze.15 mph79%29.80 "Hg1 mi
5:00 PM84 °FHaze.14 mph74%29.80 "Hg1 mi
4:00 PM86 °FHaze.10 mph66%29.80 "Hg1 mi
3:00 PM88 °FHaze.13 mph59%29.80 "Hg1 mi
2:00 PM90 °FHaze.12 mph52%29.80 "Hg1 mi
1:00 PM88 °FHaze.8 mph55%29.83 "Hg1 mi
12:00 PM88 °FHaze.9 mph59%29.86 "Hg1 mi
11:00 AM88 °FScattered clouds.3 mph59%29.89 "Hg1 mi
10:00 AM84 °FHaze.5 mph66%29.92 "Hg1 mi
9:00 AM82 °FHaze.3 mph70%29.92 "Hg1 mi
8:00 AM79 °FFog.2 mph79%29.92 "Hg1 mi
7:00 AM77 °FFog.3 mph83%29.89 "Hg1 mi
6:00 AM75 °FFog.6 mph89%29.86 "Hg2 mi
5:00 AM77 °FFog.10 mph83%29.86 "Hg2 mi
4:00 AM77 °FFog.7 mph79%29.83 "Hg2 mi
3:00 AM77 °FHaze.8 mph83%29.83 "Hg2 mi
2:00 AM79 °FHaze.7 mph79%29.86 "Hg2 mi
1:00 AM79 °FHaze.6 mph74%29.86 "Hg2 mi
12:00 AM81 °FHaze.6 mph74%29.89 "Hg2 mi
11:00 PM
Wed, Feb 10
81 °FHaze.6 mph70%29.89 "Hg2 mi
10:00 PM82 °FHaze.3 mph66%29.89 "Hg2 mi
Weather by CustomWeather, © 2016

See weather overviewHow to use our weather pages